Retour au catalogue

STARLINK-32476

ActifCommunicationsVLEO
NORAD 61550·PAYLOAD·🇺🇸 United States

Lancé Oct 15, 2024 depuis Vandenberg Space Force Base

Loading…

Prochains Passages (prochaines 24 heures)

TLE

FraisSource: CelesTrak SupGP

Époque: Sep 15, 2026, 03:40 UTC

1 61550C 24184U   26258.15326389 -.00208170  00000+0 -61492-2 0  2587
2 61550  53.1577 210.7663 0001390  89.3799 102.6878 15.34501585    10

Suivez STARLINK-32476 en temps réel avec AllMySat

Download on the App Store